Weather History for San Luis Obispo, CA

Change the Weather History Date:

Friday, June 6, 2014

  Actual Average Record
Temperature  
Mean Temperature 63 °F -  
Max Temperature 75 °F 74 °F 96 °F (1981)
Min Temperature 53 °F 49 °F 40 °F (1976)
Degree Days  
Heating Degree Days 2    
Growing Degree Days 13 (Base 50)    
Moisture  
Dew Point 51 °F    
Average Humidity 72    
Maximum Humidity 94    
Minimum Humidity 46    
Precipitation  
Precipitation 0.00 in - - ()
Sea Level Pressure  
Sea Level Pressure 29.86 in    
Wind  
Wind Speed 7 mph (NW)    
Max Wind Speed 15 mph    
Max Gust Speed -    
Visibility 10 miles    
Events      
Averages and records for this station are not official NWS values.
T = Trace of Precipitation, MM = Missing Value Source: NWS Daily Summary

Daily Weather History Graph

Daily Weather History Graph

Search for Another Location

Airport:

Trip Planner

Search our weather history database for the weather conditions in past years. The results will help you decide how hot, cold, wet, or windy it might be!

Date:

Astronomy

Jun. 06, 2014 Rise Set
Actual Time 5:47 AM PDT 8:14 PM PDT
Civil Twilight 5:18 AM PDT 8:44 PM PDT
Nautical Twilight 4:41 AM PDT 9:20 PM PDT
Astronomical Twilight 4:01 AM PDT 10:01 PM PDT
Moon 1:52 PM PDT (6/6) 1:27 AM PDT (6/6)
Length of Visible Light 15h 26m
Length of Day
14h 26m
First Quarter, 59% of the Moon is Illuminated
Jun 6
First Quarter
Jun 12
Full
Jun 19
Last Quarter
Jun 27
New
Jul 5
First Quarter

Hourly Weather History & Observations

Time (PDT) Temp. Dew Point Humidity Pressure Visibility Wind Dir Wind Speed Gust Speed Precip Events Conditions
12:56 AM 55.0 °F 51.1 °F 86% 29.86 in 9.0 mi WNW 8.1 mph - N/A   Overcast
1:56 AM 55.0 °F 51.1 °F 86% 29.85 in 10.0 mi WNW 8.1 mph - N/A   Overcast
2:56 AM 55.0 °F 51.1 °F 86% 29.85 in 10.0 mi NW 5.8 mph - N/A   Overcast
3:56 AM 54.0 °F 51.1 °F 90% 29.85 in 10.0 mi WNW 4.6 mph - N/A   Overcast
4:03 AM 53.6 °F 51.8 °F 94% 29.85 in 10.0 mi West 4.6 mph - N/A   Overcast
4:56 AM 54.0 °F 51.1 °F 90% 29.86 in 9.0 mi NNW 4.6 mph - N/A   Overcast
5:56 AM 54.0 °F 51.1 °F 90% 29.86 in 8.0 mi NW 4.6 mph - N/A   Overcast
6:56 AM 54.0 °F 50.0 °F 86% 29.87 in 10.0 mi NW 6.9 mph - N/A   Overcast
7:56 AM 55.0 °F 50.0 °F 83% 29.88 in 10.0 mi NW 4.6 mph - N/A   Overcast
8:56 AM 55.9 °F 50.0 °F 80% 29.89 in 10.0 mi Calm Calm - N/A   Overcast
9:56 AM 59.0 °F 50.0 °F 72% 29.88 in 10.0 mi Calm Calm - N/A   Mostly Cloudy
10:15 AM 62.6 °F 50.0 °F 63% 29.88 in 10.0 mi NW 5.8 mph - N/A   Partly Cloudy
10:56 AM 64.9 °F 51.1 °F 61% 29.87 in 10.0 mi NW 5.8 mph - N/A   Clear
11:56 AM 70.0 °F 51.1 °F 51% 29.86 in 10.0 mi Variable 3.5 mph - N/A   Clear
12:56 PM 73.0 °F 51.1 °F 46% 29.85 in 10.0 mi Variable 6.9 mph - N/A   Clear
1:56 PM 73.0 °F 51.1 °F 46% 29.84 in 10.0 mi WNW 11.5 mph - N/A   Clear
2:56 PM 73.0 °F 51.1 °F 46% 29.84 in 10.0 mi NW 15.0 mph - N/A   Clear
3:56 PM 72.0 °F 51.1 °F 48% 29.83 in 10.0 mi NW 10.4 mph - N/A   Clear
4:56 PM 70.0 °F 51.1 °F 51% 29.83 in 10.0 mi NW 13.8 mph - N/A   Clear
5:56 PM 66.0 °F 51.1 °F 59% 29.83 in 10.0 mi NW 10.4 mph - N/A   Clear
6:56 PM 63.0 °F 51.1 °F 65% 29.85 in 10.0 mi NW 11.5 mph - N/A   Partly Cloudy
7:56 PM 59.0 °F 51.1 °F 75% 29.85 in 9.0 mi NW 10.4 mph - N/A   Clear
8:56 PM 55.9 °F 50.0 °F 80% 29.86 in 9.0 mi NW 10.4 mph - N/A   Clear
9:56 PM 55.9 °F 50.0 °F 80% 29.87 in 9.0 mi NW 6.9 mph - N/A   Scattered Clouds
10:04 PM 55.4 °F 50.0 °F 82% 29.87 in 9.0 mi NW 6.9 mph - N/A   Mostly Cloudy
11:56 PM 57.0 °F 50.0 °F 77% 29.86 in 9.0 mi Calm Calm - N/A   Overcast